Hourly Data Report for October 07, 2014

All times are specified in Local Standard Time (LST). Add 1 hour to adjust for Daylight Saving Time where and when it is observed.

CLYDE RIVER A
NUNAVUT

70°29'09.000" N
68°31'01.000" W
26.50 m
2400804
71090
YCY

Download Data

Hourly Data (October 2014)
Hourly Data Report for October 7, 2014
Temp Definition
°C
Dew Point Temp Definition
°C
Rel Hum Definition
%
Wind Dir Definition
10's deg

Wind Spd Definition
km/h
Visibility Definition
km
Stn Press Definition
kPa
Hmdx Definition


Wind Chill Definition


Weather Definition


TIME
00:00 Legend Double Dagger -2.7 -4.7 86 32 9 16.1 102.81   -6 LegendNANA
01:00 Legend Double Dagger -2.1 -5.3 79 2 5 16.1 102.82   -4 LegendNANA
02:00 Legend Double Dagger -2.2 -5.4 79 4 5 16.1 102.81   -4 LegendNANA
03:00 Legend Double Dagger -2.6 -5.4 81 1 8 16.1 102.80   -6 LegendNANA
04:00 Legend Double Dagger -2.0 -5.9 75 3 5 16.1 102.80   -4 LegendNANA
05:00 Legend Double Dagger -2.5 -5.2 82 32 9 16.1 102.78   -6 LegendNANA
06:00 Legend Double Dagger -2.5 -5.3 81 31 9 16.1 102.77   -6 Snow
07:00 Legend Double Dagger -2.7 -4.7 86 31 26 16.1 102.73   -10 LegendNANA
08:00 Legend Double Dagger -2.7 -4.4 88 31 17 16.1 102.72   -8 LegendNANA
09:00 Legend Double Dagger -2.6 -4.9 84 31 22 16.1 102.68   -9 LegendNANA
10:00 Legend Double Dagger -3.1 -5.2 85 30 26 12.9 102.63   -10 Snow
11:00 Legend Double Dagger -2.8 -4.2 90 33 24 6.4 102.63   -9 Snow
12:00 Legend Double Dagger -2.4 -4.6 85 35 18 16.1 102.62   -8 Snow
13:00 Legend Double Dagger -2.3 -4.5 85 31 15 16.1 102.58   -7 LegendNANA
14:00 Legend Double Dagger -2.3 -4.6 84 31 18 16.1 102.55   -8 LegendNANA
15:00 Legend Double Dagger -2.4 -3.7 91 31 21 16.1 102.52   -8 Snow
16:00 Legend Double Dagger -2.2 -4.6 83 34 26 16.1 102.52   -9 LegendNANA
17:00 Legend Double Dagger -2.6 -4.3 88 32 32 16.1 102.53   -10 Snow
18:00 Legend Double Dagger -2.9 -4.5 89 32 30 14.5 102.50   -10 Snow
19:00 Legend Double Dagger -2.8 -4.8 86 32 28 16.1 102.48   -10 Snow
20:00 Legend Double Dagger -2.8 -4.9 85 33 35 16.1 102.45   -11 Snow
21:00 Legend Double Dagger -2.7 -4.9 85 33 30 16.1 102.40   -10 LegendNANA
22:00 Legend Double Dagger -2.7 -4.6 87 32 32 16.1 102.35   -10 Snow
23:00 Legend Double Dagger -2.7 -4.4 88 32 37 16.1 102.32   -11 LegendNANA

Notes on Data Quality.

Legend

  • E = Estimated
  • M = Missing
  • NA = Not Available
  • ‡ = Partner data that is not subject to review by the National Climate Archives
Date modified: